Weather History for Falls City, NE

Change the Weather History Date:

Monday, March 26, 2012

  Actual Average Record
Temperature  
Mean Temperature 67 °F -  
Max Temperature 81 °F 57 °F 83 °F (1991)
Min Temperature 54 °F 34 °F 5 °F (1964)
Cooling Degree Days 2    
Growing Degree Days 17 (Base 50)    
Moisture  
Dew Point 51 °F    
Average Humidity 58    
Maximum Humidity 84    
Minimum Humidity 36    
Precipitation  
Precipitation 0.00 in - - ()
Sea Level Pressure  
Sea Level Pressure 29.94 in    
Wind  
Wind Speed 10 mph (SSE)    
Max Wind Speed 21 mph    
Max Gust Speed 31 mph    
Visibility 10 miles    
Events      
Averages and records for this station are not official NWS values.
T = Trace of Precipitation, MM = Missing Value Source: NWS Daily Summary

Daily Weather History Graph

Daily Weather History Graph

Search for Another Location

Airport:

Trip Planner

Search our weather history database for the weather conditions in past years. The results will help you decide how hot, cold, wet, or windy it might be!

Date:

Astronomy

Mar. 26, 2012 Rise Set
Actual Time 7:15 AM CDT 7:41 PM CDT
Civil Twilight 6:48 AM CDT 8:08 PM CDT
Nautical Twilight 6:16 AM CDT 8:40 PM CDT
Astronomical Twilight 5:43 AM CDT 9:13 PM CDT
Moon 9:05 AM CDT (3/26) 11:52 PM CDT (3/26)
Length of Visible Light 13h 20m
Length of Day
12h 25m
Waxing Crescent, 15% of the Moon is Illuminated
Mar 26
Waxing Crescent
Mar 30
First Quarter
Apr 6
Full
Apr 13
Last Quarter
Apr 21
New

Hourly Weather History & Observations

Time (CDT) Temp. Heat Index Dew Point Humidity Pressure Visibility Wind Dir Wind Speed Gust Speed Precip Events Conditions
12:53 AM 57.9 °F - 46.9 °F 67% 30.01 in 10.0 mi ESE 3.5 mph - N/A   Clear
1:53 AM 57.0 °F - 46.9 °F 69% 30.01 in 10.0 mi SE 5.8 mph - N/A   Overcast
2:53 AM 55.9 °F - 48.0 °F 75% 30.01 in 10.0 mi SSE 4.6 mph - N/A   Partly Cloudy
3:53 AM 55.0 °F - 48.0 °F 77% 30.00 in 10.0 mi SE 4.6 mph - N/A   Mostly Cloudy
4:53 AM 54.0 °F - 48.9 °F 83% 30.00 in 10.0 mi SE 5.8 mph - N/A   Mostly Cloudy
5:53 AM 57.0 °F - 50.0 °F 77% 30.01 in 10.0 mi SE 4.6 mph - N/A   Overcast
6:53 AM 55.9 °F - 51.1 °F 84% 30.01 in 10.0 mi SE 5.8 mph - N/A   Overcast
7:53 AM 57.2 °F - 50.0 °F 77% 30.04 in 10.0 mi SE 6.9 mph - N/A   Scattered Clouds
8:53 AM 61.0 °F - 53.1 °F 75% 30.03 in 10.0 mi SE 9.2 mph - N/A   Clear
9:53 AM 68.0 °F - 54.0 °F 61% 30.03 in 10.0 mi SSE 13.8 mph - N/A   Clear
10:53 AM 72.0 °F - 52.0 °F 49% 30.02 in 10.0 mi SSE 18.4 mph 26.5 mph N/A   Clear
11:53 AM 75.0 °F - 52.0 °F 44% 30.00 in 10.0 mi SSE 17.3 mph 26.5 mph N/A   Clear
12:53 PM 78.1 °F - 53.1 °F 42% 29.97 in 10.0 mi South 18.4 mph 31.1 mph N/A   Clear
1:53 PM 78.1 °F - 52.0 °F 40% 29.94 in 10.0 mi South 20.7 mph 31.1 mph N/A   Clear
2:53 PM 80.1 °F - 51.1 °F 36% 29.91 in 10.0 mi SSE 20.7 mph 27.6 mph N/A   Clear
3:53 PM 80.1 °F 79.9 °F 53.1 °F 39% 29.89 in 10.0 mi South 20.7 mph 31.1 mph N/A   Clear
4:53 PM 80.1 °F - 51.1 °F 36% 29.86 in 10.0 mi South 19.6 mph 27.6 mph N/A   Clear
5:53 PM 79.0 °F - 52.0 °F 39% 29.84 in 10.0 mi South 18.4 mph 25.3 mph N/A   Clear
6:53 PM 75.9 °F - 52.0 °F 43% 29.83 in 10.0 mi SSE 15.0 mph 25.3 mph N/A   Clear
7:53 PM 72.0 °F - 52.0 °F 49% 29.83 in 10.0 mi SSE 15.0 mph - N/A   Clear
8:53 PM 71.1 °F - 53.1 °F 53% 29.82 in 10.0 mi SSE 17.3 mph - N/A   Clear
9:53 PM 70.0 °F - 53.1 °F 55% 29.81 in 10.0 mi SSE 17.3 mph - N/A   Clear
10:53 PM 66.9 °F - 53.1 °F 61% 29.79 in 10.0 mi SSE 16.1 mph - N/A   Clear
11:53 PM 66.0 °F - 53.1 °F 63% 29.80 in 10.0 mi SSE 10.4 mph - N/A   Clear